Regional Weather Roundup
Issued by NWS

Home | Current Version | Previous Version | Text Only | Print | Product List | Glossary On
Versions: 1 2 3 4 5 6 7 8 9 10 11 12 13 14 15 16 17 18 19 20 21 22 23 24 25 26 27 28 29 30 31 32 33 34 35 36 37 38 39 40 41 42 43 44 45 46 47 48 49 50
000
ASUS43 KMPX 011401
RWRMN
WEATHER ROUNDUP FOR MINNESOTA
NATIONAL WEATHER SERVICE TWIN CITIES/CHANHASSEN MN
900 AM CDT TUE SEP 01 2015


NOTE: "FAIR" INDICATES FEW OR NO CLOUDS BELOW 12,000 FEET WITH NO
SIGNIFICANT WEATHER AND/OR OBSTRUCTIONS TO VISIBILITY. N/A MEANS
CURRENT SKY AND/OR WEATHER CONDITIONS ARE NOT AVAILABLE.

MNZ060>063-068>070-011500-
   Twin Cities Metro

CITY           SKY/WX    TMP DP  RH WIND       PRES   REMARKS
TWIN CITIES    PTSUNNY   76  66  71 S6        29.92F
ST PAUL        MOSUNNY   72  68  87 SE6       29.92F FOG
CRYSTAL        PTSUNNY   76  67  73 S5        29.90F
BLAINE         PTSUNNY   75  70  83 S6        29.92S
LAKEVILLE      MOSUNNY   72  70  94 CALM      29.93F
EDEN PRAIRIE   PTSUNNY   75  67  76 S3        29.91F
SOUTH ST PAUL  MOSUNNY   73  68  84 CALM      29.92F HAZE
LAKE ELMO      FAIR      72  68  88 S5        29.94S
$$
MNZ001>005-007-008-013>017-022>024-027-028-011500-
   Northwest Minnesota

CITY           SKY/WX    TMP DP  RH WIND       PRES   REMARKS
BEMIDJI        MOSUNNY   61  60  96 CALM      29.92S
HALLOCK        SUNNY     63  54  72 S7        29.85S
ROSEAU         SUNNY     63  55  77 SW5       29.88R
WARROAD        SUNNY     63  55  77 S6        29.88S
THIEF RVR FALL MOSUNNY  N/A N/A N/A S3        29.89S
CROOKSTON      SUNNY     63  59  88 S6        29.89S
FOSSTON        MOSUNNY   61  61 100 S3        29.91F
DETROIT LAKES  PTSUNNY   63  61  94 SE3       29.93S
MOORHEAD       MOSUNNY   64  63  94 CALM      29.89F FOG
PARK RAPIDS    PTSUNNY   65  62  90 SE3       29.93S
MAHNOMEN       FAIR      62  59  91 CALM      29.90S
$$
MNZ006-009>011-018-025>026-011500-
   North Central Minnesota

CITY           SKY/WX    TMP DP  RH WIND       PRES   REMARKS
BAUDETTE       SUNNY     63  55  75 CALM      29.88S
FLAG ISLAND    SUNNY     64  54  68 SW5       29.85S
INTL FALLS     MOSUNNY   61  59  93 CALM      29.90S
WASKISH        MOSUNNY   61  57  88 CALM      29.90F
BIG FORK       PTSUNNY   61  61 100 CALM      29.93S FOG
LONGVILLE      CLOUDY    64  64 100 CALM      29.93S FOG
GRAND RAPIDS     N/A     66  63  88 CALM      29.93S
CRANE LAKE     PTSUNNY   61  61 100 S1        29.93R
ORR            PTSUNNY   63  61  94 CALM      29.90S
COOK           PTSUNNY   64  63  94 CALM      29.93S
WALKER         FAIR      60  59  97 CALM      29.93S
$$
MNZ012-019>021-037-011500-
   Northeast Minnesota

CITY           SKY/WX    TMP DP  RH WIND       PRES   REMARKS
DULUTH         PTSUNNY   71  68  90 CALM      29.92S FOG
ELY            PTSUNNY   66  64  94 W3        29.92S
HIBBING        PTSUNNY   68  64  87 CALM      29.93R
EVELETH        MOSUNNY   64  64 100 CALM      29.93S
DULUTH HARBOR  CLOUDY    73  70  88 SW7       29.90S
TWO HARBORS    MOSUNNY   75  72  88 CALM      29.89S
SILVER BAY     MOSUNNY   75  70  83 CALM      29.89S
GRAND MARAIS     N/A     58  57  97 SW3       29.87S
G MARAIS ARPRT CLOUDY    72  64  78 CALM      29.93S HAZE
$$
MNZ029>031-032-039>041-046>048-054>057-064-011500-
   West Central Minnesota

CITY           SKY/WX    TMP DP  RH WIND       PRES   REMARKS
FERGUS FALLS   PTSUNNY   70  66  88 SE8       29.90S
WHEATON        MOSUNNY   66  64  94 SE3       29.91S
MORRIS         PTSUNNY   72  66  83 E6        29.90S
ALEXANDRIA     CLOUDY    71  65  81 E6        29.94S
ELBOW LAKE     FAIR      68  65  90 E6        29.90F
WADENA         CLOUDY    64  64 100 CALM      29.93S
GLENWOOD       CLOUDY    70  66  88 NE6       29.93S
APPLETON       CLOUDY    72  66  83 E8        29.88F
BENSON         CLOUDY    70  64  83 E3        29.91R
ORTONVILLE     PTSUNNY   70  64  83 E6        29.89F
MADISON        CLOUDY    70  66  88 CALM      29.90S FOG
WILLMAR        FAIR      72  70  94 CALM      29.92F FOG
$$
MNZ033>034-036-042>043-049>051-058-059-011500-
   Central Minnesota

CITY           SKY/WX    TMP DP  RH WIND       PRES   REMARKS
ST CLOUD       CLOUDY    70  68  93 CALM      29.92S FOG
SAUK CENTRE    FAIR      68  66  91 E3        29.93S
PAYNESVILLE    CLOUDY    70  68  94 N5        29.93S
AITKIN         CLOUDY    70  63  78 CALM      29.91S
PINE RIVER     PTSUNNY   64  64 100 CALM      29.96S
BRAINERD       CLOUDY    67  65  93 CALM      29.93S FOG
STAPLES        PTSUNNY   64  64 100 CALM      29.93S
LONG PRAIRIE   FAIR      68  64  88 CALM      29.94R
LITTLE FALLS   CLOUDY    70  64  83 CALM      29.93S
LITCHFIELD     CLOUDY    72  70  94 CALM      29.93F
BUFFALO        CLOUDY    71  66  82 S5        29.94S
MAPLE LAKE     CLOUDY    72  69  92 CALM      29.93S
$$
MNZ037-044-045-052-053-011500-
   East Central Minnesota

CITY           SKY/WX    TMP DP  RH WIND       PRES   REMARKS
PRINCETON      CLOUDY    72  68  88 CALM      29.92S
MORA           CLOUDY    70  68  94 W3        29.94R FOG
CAMBRIDGE      CLOUDY    73  64  73 S5        29.90S
RUSH CITY      CLOUDY    71  68  90 S3        29.92F
MOOSE LAKE     CLOUDY    70  68  94 CALM      29.90F FOG
HINCKLEY       PTSUNNY   70  70 100 SW3       29.92F FOG
CLOQUET        PTSUNNY   70  66  88 CALM      29.92F FOG
MCGREGOR       CLOUDY    68  68 100 CALM      29.92F
$$
MNZ071>073-080-081-089-090-097-098-011500-
   Southwest Minnesota

CITY           SKY/WX    TMP DP  RH WIND       PRES   REMARKS
MONTEVIDEO     CLOUDY    70  70 100 SE5       29.91F FOG
GRANITE FALLS  CLOUDY    68  68  98 CALM      29.91S
CANBY          CLOUDY    68  66  92 CALM      29.91F
MARSHALL       CLOUDY    70  64  83 CALM      29.92S
REDWOOD FALLS  CLOUDY    70  66  87 SE3       29.90S
OLIVIA         CLOUDY    68  63  83 CALM      29.91R
PIPESTONE      CLOUDY    70  66  88 S3        29.92S FOG
WINDOM         PTSUNNY   72  66  83 CALM      29.92F
WORTHINGTON    MOSUNNY   70  64  83 S8        29.93S
JACKSON        MOSUNNY   72  68  88 S5        29.94F
TRACY          CLOUDY    70  68  92 N3        29.92R
SLAYTON        PTSUNNY   67  67  99 CALM      29.93S FOG
$$
MNZ065>067-074>077-082>085-091>093-011500-
   South Central Minnesota

CITY           SKY/WX    TMP DP  RH WIND       PRES   REMARKS
MANKATO        PTSUNNY   70  64  83 S3        29.93S
NEW ULM        PTSUNNY   68  66  94 CALM      29.92S
ST JAMES       PTSUNNY   70  68  94 SE5       29.93S
FAIRMONT       PTSUNNY   70  63  78 S7        29.93F
GLENCOE        PTSUNNY   73  69  88 S5        29.92S
FARIBAULT      MOSUNNY   73  70  88 S6        29.94F FOG
OWATONNA       SUNNY     73  70  88 S5        29.95S
WASECA         MOSUNNY   72  68  88 S5        29.95F
ALBERT LEA     MOSUNNY   73  70  88 S5        29.95S
$$
MNZ078>079-086>088-094>096-011500-
   Southeast Minnesota

CITY           SKY/WX    TMP DP  RH WIND       PRES   REMARKS
ROCHESTER      MOSUNNY   70  70 100 S7        29.97F FOG
RED WING       MOSUNNY   73  72  94 SE6       29.92F
STANTON        SUNNY     74  69  85 S3        29.93S
DODGE CENTER   SUNNY     72  70  94 S7        29.96F FOG
WINONA         MOSUNNY   73  72  94 SE7       29.95F FOG
AUSTIN         SUNNY     72  72 100 S6        29.96F FOG
PRESTON        MOSUNNY   70  69  95 S9        29.99S FOG
$$
ABBREVIATIONS USED IN REMARKS
   TC - TEMPERATURES IN CELSIUS
  WCI - WIND CHILL INDEX
   HX - HEAT INDEX
  VSB - VISIBILITY
$$


USA.gov is the U.S. government's official web portal to all federal, state and local government web resources and services.